Location: Most
(50.5330°N, 13.6500°E)
Time: 10:29:34
(UTC+02:00)

ISS - Pass Details

Date: 02 March 2024
Orbit: 409 x 423 km, 51.6° (Epoch: 21 July)

Event Time Altitude Azimuth Distance (km) Brightness Sun altitude
Exits shadow 06:10:05 - 279° (W) 1,714 -1.3 -6.6°
Reaches altitude 10° 06:10:25 10° 277° (W) 1,594 -1.5 -6.5°
Maximum altitude 06:13:42 34° 211° (SSW) 769 -2.6 -6.0°
Drops below altitude 10° 06:16:58 10° 146° (SE) 1,586 -0.2 -5.5°
Sets 06:19:12 0° 137° (SE) 2,453 1.0 -5.1°
